Frederick, MD

4:32 AM EDT on October 23, 2019 (GMT -0400)
Frederick Municipal

Weather History for KFDK - August, 2019

Change the Weather History Date:

Saturday, August 31, 2019

  Actual Average (WUND) Record (WUND)
Temperature  
Mean Temperature 74 °F -  
Max Temperature 84 °F - - (-1)
Min Temperature 64 °F - - (-1)
Cooling Degree Days 9    
Growing Degree Days 24 (Base 50)    
Moisture  
Dew Point 63 °F    
Average Humidity 78    
Maximum Humidity 100    
Minimum Humidity 45    
Precipitation  
Precipitation 0.00 in - - ()
Sea Level Pressure  
Sea Level Pressure 30.19 in    
Wind  
Wind Speed 2 mph (NNE)    
Max Wind Speed 9 mph    
Max Gust Speed -    
Visibility 10 miles    
Events      
Averages and records for this station are not official NWS values.
T = Trace of Precipitation, MM = Missing Value Source: NWS Daily Summary

Daily Weather History Graph

Daily Weather History Graph

Search for Another Location

Airport or City:

Astronomy

Aug. 31, 2019 Rise Set
Actual Time 6:36 AM EDT 7:42 PM EDT
Civil Twilight 6:09 AM EDT 8:09 PM EDT
Nautical Twilight 5:36 AM EDT 8:42 PM EDT
Astronomical Twilight 5:01 AM EDT 9:16 PM EDT
Moon 7:50 AM EDT (8/31) 8:54 PM EDT (8/31)
Length of Visible Light 14h 00m
Length of Day
13h 05m
New Moon, 2% of the Moon is Illuminated
Aug 31
New Moon
Sep 5
First Quarter
Sep 14
Full
Sep 21
Last Quarter
Sep 28
New

Hourly Weather History & Observations

Time (EDT) Temp. Heat Index Dew Point Humidity Pressure Visibility Wind Dir Wind Speed Gust Speed Precip Events Conditions
12:00 AM 69.8 °F - 66.2 °F 88% 30.11 in 10.0 mi ESE 3.5 mph - N/A   Clear
12:20 AM 68.0 °F - 66.2 °F 94% 30.11 in 10.0 mi Calm Calm - N/A   Clear
12:40 AM 68.0 °F - 66.2 °F 94% 30.12 in 10.0 mi Calm Calm - N/A   Clear
1:00 AM 68.0 °F - 66.2 °F 94% 30.12 in 10.0 mi Calm Calm - N/A   Clear
1:20 AM 68.0 °F - 64.4 °F 88% 30.12 in 10.0 mi Calm Calm - N/A   Clear
1:40 AM 68.0 °F - 64.4 °F 88% 30.12 in 10.0 mi Calm Calm - N/A   Clear
2:00 AM 66.2 °F - 64.4 °F 94% 30.12 in 10.0 mi Calm Calm - N/A   Clear
2:20 AM 66.2 °F - 64.4 °F 94% 30.12 in 10.0 mi Calm Calm - N/A   Clear
2:40 AM 66.2 °F - 64.4 °F 94% 30.12 in 10.0 mi Calm Calm - N/A   Clear
3:00 AM 66.2 °F - 64.4 °F 94% 30.12 in 10.0 mi Calm Calm - N/A   Clear
3:20 AM 66.2 °F - 64.4 °F 94% 30.12 in 10.0 mi Calm Calm - N/A   Clear
3:40 AM 66.2 °F - 64.4 °F 94% 30.12 in 10.0 mi Calm Calm - N/A   Clear
4:00 AM 64.4 °F - 64.4 °F 100% 30.13 in 7.0 mi Calm Calm - N/A   Clear
4:40 AM 64.4 °F - 64.4 °F 100% 30.14 in 7.0 mi Calm Calm - N/A   Clear
5:00 AM 64.4 °F - 64.4 °F 100% 30.15 in 10.0 mi NNE 3.5 mph - N/A   Clear
5:20 AM 64.4 °F - 64.4 °F 100% 30.15 in 10.0 mi Calm Calm - N/A   Clear
5:40 AM 64.4 °F - 64.4 °F 100% 30.16 in 10.0 mi Calm Calm - N/A   Clear
6:00 AM 64.4 °F - 64.4 °F 100% 30.17 in 10.0 mi Calm Calm - N/A   Clear
6:20 AM 64.4 °F - 62.6 °F 94% 30.18 in 7.0 mi Calm Calm - N/A   Mostly Cloudy
6:40 AM 64.4 °F - 62.6 °F 94% 30.19 in 10.0 mi Calm Calm - N/A   Mostly Cloudy
6:55 AM 64.4 °F - 62.6 °F 94% 30.20 in 10.0 mi Calm Calm - N/A   Mostly Cloudy
7:47 AM 69.8 °F - 64.4 °F 83% 30.21 in 10.0 mi NNE 5.8 mph - N/A   Mostly Cloudy
8:47 AM 73.4 °F - 62.6 °F 69% 30.23 in 10.0 mi NNE 9.2 mph - N/A   Mostly Cloudy
9:47 AM 75.2 °F - 62.6 °F 65% 30.24 in 10.0 mi NE 9.2 mph - N/A   Mostly Cloudy
10:47 AM 78.8 °F - 60.8 °F 54% 30.25 in 10.0 mi NE 9.2 mph - N/A   Mostly Cloudy
11:47 AM 78.8 °F - 60.8 °F 54% 30.25 in 10.0 mi NNE 9.2 mph - N/A   Mostly Cloudy
12:47 PM 80.6 °F 81.5 °F 60.8 °F 51% 30.24 in 10.0 mi NNE 8.1 mph - N/A   Clear
1:50 PM 82.4 °F 82.9 °F 60.8 °F 48% 30.23 in 10.0 mi NE 8.1 mph - N/A   Clear
2:58 PM 84.2 °F 84.4 °F 60.8 °F 45% 30.22 in 10.0 mi NE 5.8 mph - N/A   Clear
3:47 PM 84.2 °F 84.4 °F 60.8 °F 45% 30.21 in 10.0 mi North 8.1 mph - N/A   Clear
4:47 PM 84.2 °F 84.4 °F 60.8 °F 45% 30.21 in 10.0 mi NE 4.6 mph - N/A   Clear
5:47 PM 84.2 °F 85.0 °F 62.6 °F 48% 30.21 in 10.0 mi NE 5.8 mph - N/A   Clear
6:47 PM 80.6 °F 81.8 °F 62.6 °F 54% 30.22 in 10.0 mi NE 5.8 mph - N/A   Clear
8:47 PM 73.4 °F - 64.4 °F 73% 30.23 in 10.0 mi NNE 5.8 mph - N/A   Clear
9:20 PM 71.6 °F - 57.2 °F 60% 30.25 in 10.0 mi North 6.9 mph - N/A   Clear
9:40 PM 71.6 °F - 59.0 °F 64% 30.26 in 10.0 mi North 5.8 mph - N/A   Clear
10:00 PM 69.8 °F - 59.0 °F 68% 30.26 in 10.0 mi NNE 5.8 mph - N/A   Clear
10:20 PM 69.8 °F - 59.0 °F 68% 30.26 in 10.0 mi North 4.6 mph - N/A   Clear
10:40 PM 68.0 °F - 59.0 °F 73% 30.26 in 10.0 mi NNE 3.5 mph - N/A   Clear
11:00 PM 68.0 °F - 59.0 °F 73% 30.27 in 10.0 mi Calm Calm - N/A   Clear
11:20 PM 68.0 °F - 59.0 °F 73% 30.27 in 10.0 mi Calm Calm - N/A   Clear
11:40 PM 68.0 °F - 59.0 °F 73% 30.27 in 10.0 mi Calm Calm - N/A   Scattered Clouds